[[{"header":{"parameterUnit":"m.s-1","parameterCategory":1,"la1":30.2991,"la2":30.254,"lo1":-89.0895,"lo2":-89.0444,"dy":0.0017,"dx":0.0017,"nx":28,"ny":28,"refTime":"2024-11-24T03:00:00:Z","depth":0,"parameterNumber":2,"parameterNumberName":"U-component_of_WINDS"},"data":[0,0,0,0,0,0,0,0,0,0,0,0,0,0,0,0,0,0,0,0,0,0,0,0,0,0,0,0,0,0,0,0,0,0,0,0,0,0,0,0,0,0,0,0,0,0,0,0,0,0,0,0,0,0,0,0,0,0,0.0621,0.0621,0,0.0702,0.0703,0.0704,0.0716,0.0715,0.0714,0.0714,0.08,0.0803,0.0806,0,0,0,0,0,0,0,0,0,0,0,0,0,0.0479,0.0481,0.062,0.0621,0.0622,0.0702,0.0703,0.0704,0.0716,0.0715,0.0714,0.0713,0.0799,0.0802,0.0806,0,0,0,0,0,0,0,0,0,0,0,0,0,0.0548,0.0482,0.062,0.0638,0.064,0.0701,0.0703,0.0704,0.0716,0.0715,0.0714,0.0713,0.0798,0.0802,0.0806,0.0856,0,0,0.082,0.0822,0,0,0,0,0,0,0,0,0.0544,0.0554,0.0634,0.0637,0.064,0.0697,0.0684,0.0755,0.0716,0.0688,0.0714,0.0712,0.0767,0.0774,0.0791,0.086,0.0864,0.082,0.0823,0.0825,0.0826,0,0,0,0,0,0,0,0.054,0.055,0.0653,0.0636,0.0639,0.0643,0.0652,0.0698,0.0732,0.069,0.0691,0.07,0.0768,0.0787,0.0794,0.0865,0.082,0.0824,0.0827,0.0829,0.098,0.0981,0,0,0,0,0,0,0.0531,0.0546,0.065,0.0655,0.0588,0.0646,0.0656,0.068,0.0732,0.0739,0.0701,0.0701,0.078,0.0788,0.0797,0.086,0.0825,0.0829,0.0832,0.0979,0.098,0.0982,0,0,0,0,0,0,0.0528,0.054,0.0647,0.0601,0.0615,0.065,0.0677,0.0682,0.0701,0.074,0.0747,0.0714,0.0779,0.079,0.0841,0.0863,0.0831,0.0835,0.0977,0.0979,0.0981,0.0985,0,0,0,0,0,0,0.0524,0.0539,0.0558,0.0601,0.0617,0.0689,0.0678,0.0685,0.0709,0.0709,0.0754,0.0761,0.0779,0.0835,0.0846,0.0868,0.0839,0.0975,0.0978,0.098,0.0983,0.0987,0.099,0,0,0,0,0,0.0519,0.0556,0.0559,0.0571,0.0641,0.069,0.07,0.072,0.071,0.073,0.0755,0.0759,0.0858,0.084,0.0852,0.0877,0.0974,0.0977,0.098,0.0982,0.0986,0.099,0,0,0,0,0,0,0.0515,0.0562,0.0565,0.0617,0.065,0.0692,0.0718,0.0724,0.076,0.0759,0.0782,0.0793,0.0843,0.0864,0.0843,0.0928,0.0915,0.0921,0.0912,0.0917,0.092,0.0915,0.0842,0,0,0,0,0,0.052,0.0555,0.0595,0.0637,0.0653,0.0682,0.0705,0.0717,0.0752,0.0766,0.0795,0.0829,0.0868,0.0893,0.0931,0.0986,0.0997,0.1009,0.1012,0.1015,0.102,0.1052,0.1058,0.0992,0.0992,0.0992,0,0,0.0531,0.0561,0.0582,0.0637,0.0663,0.0701,0.0694,0.0733,0.0762,0.0772,0.0822,0.0845,0.0885,0.0938,0.0963,0.0958,0.104,0.1018,0.102,0.1024,0.1055,0.1062,0.1067,0.0994,0.0993,0.0993,0,0,0.057,0.0596,0.0635,0.0661,0.0701,0.0721,0.073,0.0772,0.0787,0.0837,0.0846,0.088,0.0946,0.0975,0.0998,0.1048,0.1055,0.106,0.1079,0.111,0.1115,0.112,0.1139,0.1146,0.1065,0.1065,0.1065,0,0.058,0.0635,0.0654,0.0693,0.0718,0.0728,0.0768,0.0793,0.0844,0.0861,0.0854,0.0938,0.0965,0.1026,0.1038,0.1056,0.1068,0.1056,0.1112,0.1117,0.1122,0.1141,0.1148,0.1065,0.1065,0.1065,0.1065,0,0.0645,0.0684,0.071,0.0758,0.0785,0.0825,0.085,0.0876,0.0886,0.0906,0.0958,0.0991,0.1037,0.1052,0.1062,0.1114,0.111,0.1107,0.1096,0.1129,0.1147,0.1154,0.1066,0.1066,0.1066,0.1066,0,0,0.0685,0.0743,0.0753,0.0775,0.082,0.0851,0.0891,0.0934,0.0956,0.0991,0.1026,0.1082,0.108,0.1106,0.112,0.1146,0.1186,0.1141,0.1142,0.1149,0.1247,0.125,0.1258,0.1189,0.1191,0.1192,0.1245,0,0.0731,0.0803,0.0821,0.0882,0.0919,0.0929,0.0965,0.0996,0.1017,0.1051,0.1074,0.1113,0.1107,0.1123,0.115,0.1175,0.1206,0.1172,0.1224,0.1226,0.1216,0.1268,0.1271,0.1319,0.1252,0.1253,0.1254,0,0.0795,0.083,0.0895,0.0936,0.0952,0.0983,0.1025,0.1058,0.1094,0.1107,0.1136,0.1147,0.1191,0.1176,0.1237,0.1213,0.1235,0.1251,0.1253,0.1261,0.1243,0.1278,0.1335,0.1343,0.1265,0.1264,0.1263,0,0.082,0.0883,0.0931,0.0949,0.0998,0.102,0.1041,0.1077,0.1102,0.1139,0.1156,0.1197,0.122,0.1252,0.1275,0.1261,0.1335,0.1321,0.1348,0.1348,0.1365,0.1364,0.1428,0.1376,0.1376,0.1376,0.1376,0,0.087,0.091,0.0943,0.0972,0.1017,0.1038,0.1083,0.1104,0.1136,0.117,0.1181,0.1214,0.124,0.1277,0.1294,0.1343,0.1353,0.1366,0.1371,0.1366,0.1365,0.1383,0.1381,0.1378,0.1377,0.1377,0.1376,0,0.0906,0.093,0.0982,0.1024,0.1035,0.1067,0.1103,0.1132,0.1152,0.1196,0.1207,0.1239,0.1283,0.1308,0.1363,0.1375,0.143,0.1432,0.1417,0.1419,0.1446,0.1444,0.1525,0.1538,0.1476,0.1476,0.1477,0,0.0938,0.0969,0.1013,0.1037,0.1058,0.1096,0.1122,0.1143,0.117,0.1214,0.1239,0.1283,0.1319,0.1388,0.1417,0.146,0.1464,0.1489,0.147,0.1465,0.1466,0.1465,0.1469,0.1493,0.1494,0.1494,0.1495,0,0.0992,0.1002,0.1038,0.1079,0.1109,0.1142,0.1175,0.1194,0.1221,0.1251,0.1295,0.1323,0.1379,0.1423,0.1468,0.1491,0.1498,0.15,0.1509,0.1506,0.1497,0.1504,0.1428,0.1499,0.1498,0.1498,0.1498,0.1497,0.1028,0.1056,0.1092,0.1132,0.1159,0.119,0.122,0.1244,0.1281,0.1328,0.1338,0.1385,0.1422,0.1482,0.1507,0.1544,0.154,0.1553,0.1556,0.1559,0.1561,0.1489,0.1552,0.1552,0.1552,0.1552,0.1552,0,0.1083,0.1107,0.1144,0.119,0.1222,0.1224,0.1261,0.1288,0.1329,0.1362,0.1398,0.1449,0.1492,0.1524,0.1568,0.1592,0.1597,0.1603,0.1603,0.1608,0.1562,0.155,0.1599,0.1599,0.1599,0.1599,0.1599,0.1599,0.1116,0.1165,0.1179,0.1242,0.1265,0.1311,0.1332,0.1361,0.1388,0.1445,0.148,0.15,0.1534,0.158,0.162,0.1628,0.1645,0.1651,0.166,0.1616,0.1611,0.1607,0.1596,0.1654,0.1654,0.1704,0.1705,0.1705]},{"header":{"parameterUnit":"m.s-1","parameterCategory":1,"la1":30.2991,"la2":30.254,"lo1":-89.0895,"lo2":-89.0444,"dy":0.0017,"dx":0.0017,"nx":28,"ny":28,"refTime":"2024-11-24T03:00:00:Z","depth":0,"parameterNumber":3,"parameterNumberName":"V-component_of_WINDS"},"data":[0,0,0,0,0,0,0,0,0,0,0,0,0,0,0,0,0,0,0,0,0,0,0,0,0,0,0,0,0,0,0,0,0,0,0,0,0,0,0,0,0,0,0,0,0,0,0,0,0,0,0,0,0,0,0,0,0,0,2.7828,2.7829,0,2.7874,2.7874,2.7875,2.7889,2.7889,2.7889,2.7889,2.7935,2.7936,2.7938,0,0,0,0,0,0,0,0,0,0,0,0,0,2.7755,2.7756,2.7828,2.7829,2.7829,2.7874,2.7874,2.7875,2.7889,2.7889,2.7889,2.7888,2.7934,2.7936,2.7938,0,0,0,0,0,0,0,0,0,0,0,0,0,2.7792,2.7756,2.7828,2.7842,2.7843,2.7874,2.7874,2.7875,2.7889,2.7889,2.7889,2.7888,2.7934,2.7936,2.7938,2.7958,0,0,2.7945,2.7945,0,0,0,0,0,0,0,0,2.779,2.7795,2.7839,2.7841,2.7843,2.7876,2.7866,2.7903,2.7889,2.7872,2.7889,2.7888,2.7915,2.7919,2.7928,2.796,2.7962,2.7945,2.7946,2.7947,2.7948,0,0,0,0,0,0,0,2.7787,2.7793,2.7846,2.784,2.7842,2.7846,2.7851,2.7873,2.7895,2.7873,2.7874,2.788,2.7916,2.7926,2.7929,2.7963,2.7945,2.7947,2.7948,2.7949,2.8017,2.8018,0,0,0,0,0,0,2.7782,2.7791,2.7845,2.7848,2.7815,2.7848,2.7853,2.7865,2.7895,2.7899,2.788,2.788,2.7923,2.7927,2.7931,2.7959,2.7947,2.7949,2.795,2.8017,2.8018,2.8018,0,0,0,0,0,0,2.7781,2.7787,2.7843,2.7819,2.7827,2.7849,2.7863,2.7866,2.7876,2.79,2.7904,2.7886,2.7923,2.7928,2.7952,2.7961,2.795,2.7952,2.8016,2.8017,2.8018,2.8013,0,0,0,0,0,0,2.7778,2.7786,2.7793,2.7819,2.7828,2.7862,2.7863,2.7867,2.788,2.7881,2.7906,2.791,2.7923,2.7949,2.7954,2.7964,2.7954,2.8016,2.8017,2.8018,2.8013,2.8014,2.8015,0,0,0,0,0,2.7776,2.7789,2.7793,2.78,2.7837,2.7863,2.7868,2.7882,2.7881,2.7889,2.7904,2.7909,2.7959,2.7951,2.7957,2.7967,2.8015,2.8016,2.8018,2.8012,2.8014,2.8015,0,0,0,0,0,0,2.7762,2.7793,2.7798,2.782,2.7839,2.7865,2.7875,2.7882,2.7901,2.7901,2.7918,2.7924,2.7947,2.796,2.795,2.799,2.7987,2.799,2.7981,2.7983,2.7984,2.7981,2.7955,0,0,0,0,0,2.7762,2.778,2.7805,2.7823,2.7832,2.7852,2.7864,2.7873,2.7893,2.7901,2.7918,2.7938,2.7958,2.7971,2.7991,2.8015,2.8022,2.8025,2.8026,2.8027,2.8029,2.8046,2.8049,2.8022,2.8022,2.8022,0,0,2.7761,2.778,2.779,2.782,2.7836,2.7856,2.7858,2.7878,2.7893,2.7904,2.7929,2.7942,2.7965,2.799,2.8002,2.8001,2.8038,2.8028,2.8029,2.8031,2.8048,2.805,2.8053,2.8023,2.8023,2.8023,0,0,2.777,2.7785,2.7802,2.7819,2.7844,2.7858,2.7862,2.7888,2.7898,2.7923,2.7933,2.7951,2.7985,2.8002,2.8015,2.8035,2.8042,2.8041,2.8046,2.8063,2.8065,2.8067,2.8076,2.8079,2.8043,2.8043,2.8043,0,2.7765,2.7794,2.781,2.7831,2.7845,2.7858,2.7877,2.7892,2.7921,2.7931,2.793,2.7976,2.7992,2.8023,2.8028,2.8037,2.8045,2.8038,2.8063,2.8066,2.8068,2.8077,2.808,2.8043,2.8043,2.8043,2.8043,0,2.7789,2.781,2.7821,2.7851,2.7867,2.7886,2.7906,2.792,2.793,2.7944,2.7972,2.7992,2.8018,2.8026,2.8034,2.8059,2.8058,2.806,2.8057,2.807,2.8079,2.8083,2.8043,2.8043,2.8043,2.8043,0,0,2.7788,2.783,2.7834,2.7849,2.7879,2.7895,2.7917,2.7943,2.7956,2.7977,2.7996,2.8027,2.803,2.8045,2.8056,2.807,2.8088,2.807,2.8071,2.8075,2.812,2.812,2.8124,2.8093,2.8093,2.8094,2.8119,0,2.7802,2.7841,2.7858,2.7889,2.791,2.7924,2.7943,2.7964,2.7979,2.8,2.8017,2.8039,2.804,2.805,2.8064,2.8083,2.8098,2.8081,2.8112,2.8113,2.8107,2.8128,2.8127,2.8149,2.8123,2.8123,2.8124,0,2.7823,2.7846,2.788,2.7911,2.792,2.7937,2.7964,2.7983,2.8009,2.8019,2.8038,2.8049,2.8074,2.807,2.8105,2.8094,2.8108,2.8119,2.8121,2.8125,2.812,2.8134,2.8157,2.8161,2.8129,2.8128,2.8128,0,2.7821,2.7861,2.7887,2.79,2.7936,2.7948,2.7963,2.7988,2.8005,2.8029,2.804,2.8066,2.8081,2.8102,2.8121,2.8116,2.8156,2.8153,2.8167,2.8166,2.8174,2.8174,2.8201,2.8181,2.8181,2.8181,2.8181,0,2.7836,2.7856,2.7888,2.7904,2.7928,2.7949,2.7973,2.7989,2.8013,2.8034,2.8047,2.8067,2.809,2.8113,2.8128,2.8157,2.8163,2.8173,2.8177,2.8173,2.8172,2.8183,2.8182,2.8182,2.8182,2.8182,2.8182,0,2.7838,2.7859,2.7889,2.7923,2.7932,2.7949,2.7977,2.7995,2.8012,2.8038,2.8046,2.8073,2.8101,2.8122,2.8158,2.8168,2.82,2.8203,2.8192,2.8194,2.8208,2.8207,2.8244,2.8251,2.8225,2.8225,2.8225,0,2.7846,2.7862,2.7898,2.7914,2.793,2.7954,2.7972,2.7993,2.8011,2.8044,2.8058,2.8087,2.8112,2.8157,2.818,2.8209,2.8214,2.8225,2.8218,2.8215,2.8217,2.8216,2.8219,2.8226,2.8226,2.8226,2.8226,0,2.7858,2.7869,2.7894,2.7923,2.7944,2.7968,2.7992,2.8004,2.8031,2.805,2.808,2.81,2.8138,2.8168,2.82,2.8217,2.8227,2.8229,2.8234,2.823,2.8224,2.823,2.8196,2.8228,2.8228,2.8227,2.8227,2.8227,2.7865,2.7882,2.7911,2.7939,2.796,2.7984,2.8003,2.8024,2.8049,2.8083,2.8094,2.8126,2.8155,2.8199,2.8217,2.8243,2.8243,2.8249,2.8251,2.8253,2.8254,2.8219,2.8248,2.8248,2.8248,2.8248,2.8248,0,2.788,2.7901,2.7926,2.7961,2.7984,2.7992,2.8021,2.804,2.8068,2.8094,2.8119,2.8155,2.8186,2.8213,2.8245,2.8261,2.8266,2.8269,2.8268,2.8273,2.8251,2.8245,2.8264,2.8264,2.8264,2.8264,2.8264,2.8264,2.7891,2.7921,2.7936,2.7978,2.7999,2.803,2.8046,2.8069,2.8091,2.8131,2.8157,2.8175,2.8202,2.8237,2.8266,2.8274,2.8286,2.8287,2.8296,2.8275,2.8274,2.8272,2.8266,2.8289,2.8289,2.8316,2.8316,2.8316]}]]